Location: Greenwich
(51.4790°N, 0.0090°E)
Time: 17:05:35
(UTC+01:00)

Explorer 7 - Pass Details

Date: 21 April 2024
Orbit: 467 x 626 km, 50.3° (Epoch: 17 May)

Event Time Altitude Azimuth Distance (km) Brightness Sun altitude
Rises 12:34:34 0° 237° (WSW) 2,897 10.7 50.3°
Reaches altitude 10° 12:36:55 10° 231° (SW) 2,000 10.1 50.4°
Maximum altitude 12:41:22 49° 157° (SSE) 815 10.1 50.5°
Drops below altitude 10° 12:45:49 10° 83° (E) 1,999 9.8 50.6°
Sets 12:48:10 0° 79° (ENE) 2,894 10.5 50.6°
